Home > Weather > Hilo > Past weeks

Flag for U.S.A. Weather for the Past 2 Weeks in Hilo, Hawaii, U.S.A.

Now
64 °F

Clear.


Feels Like: 64 °F
Forecast: 63 / 81 °F
Wind: 7 mph from Southwest

Location: Hilo International Airport

Current Time: Feb 9, 2016 at 4:19:13 AM

Latest Report: Feb 9, 2016 at 2:53 AM


Visibility: 10 mi

Pressure: 30.00 "Hg

Humidity: 70%

Dew point: 54 °F

Location of HiloLocation

Historic Weather in Hilo — Graph

°F

Hilo Temperature Yesterday

Maximum temperature yesterday: 80 °F (at 12:53 PM)
Minimum temperature yesterday: 61 °F (at 5:53 AM)
Average temperature yesterday: 72 °F

High & Low Weather Summary for the Past Weeks

 TemperatureHumidityPressure
High87 °F (Jan 28, 1:53 PM)94% (Feb 1, 8:21 PM)30.16 "Hg (Feb 1, 8:21 PM)
Low61 °F (Feb 8, 5:53 AM)39% (Jan 30, 11:53 AM)29.88 "Hg (Feb 6, 3:53 PM)
Average73 °F71%30.03 "Hg
* Reported Jan 25 2:53 AM — Feb 9 2:53 AM, Hilo, Weather by CustomWeather, © 2016

Note: Actual official high and low records may vary slightly from our data, if they occured in-between our weather recording intervals... More about our weather records

Advertising

Hilo Weather History for the Previous 24 Hours

 ConditionsComfort  
Time TempWeatherWind HumidityBarometerVisibility
2:53 AM
Tue, Feb 9
64 °FClear.7 mph70%30.00 "Hg10 mi
1:53 AM66 °FPartly cloudy.5 mph70%30.02 "Hg10 mi
12:53 AM69 °FOvercast.6 mph63%30.03 "Hg10 mi
11:53 PM
Mon, Feb 8
69 °FOvercast.5 mph66%30.03 "Hg10 mi
10:53 PM69 °FOvercast.6 mph66%30.04 "Hg10 mi
9:53 PM71 °FOvercast.6 mph59%30.04 "Hg10 mi
8:53 PM71 °FOvercast.3 mph61%30.03 "Hg10 mi
7:53 PM72 °FOvercast.6 mph55%30.02 "Hg10 mi
6:53 PM72 °FOvercast.3 mph55%30.00 "Hg10 mi
5:53 PM73 °FOvercast.7 mph53%29.97 "Hg10 mi
4:53 PM77 °FScattered clouds.7 mph47%29.95 "Hg10 mi
3:53 PM77 °FPassing clouds.9 mph45%29.93 "Hg10 mi
2:53 PM78 °FSunny.9 mph43%29.93 "Hg10 mi
1:53 PM79 °FSunny.10 mph42%29.96 "Hg10 mi
12:53 PM80 °FSunny.9 mph41%29.97 "Hg10 mi
11:53 AM79 °FSunny.6 mph44%30.00 "Hg10 mi
10:53 AM79 °FScattered clouds.8 mph42%30.04 "Hg10 mi
9:53 AM79 °FPartly sunny.12 mph44%30.04 "Hg10 mi
8:53 AM72 °FPartly sunny.10 mph55%30.05 "Hg10 mi
7:53 AM70 °FOvercast.9 mph57%30.05 "Hg10 mi
6:53 AM63 °FOvercast.6 mph68%30.03 "Hg10 mi
5:53 AM61 °FPassing clouds.6 mph70%29.99 "Hg10 mi
4:53 AM65 °FOvercast.6 mph66%29.98 "Hg10 mi
Weather by CustomWeather, © 2016

See weather overviewHow to use our weather pages